Flag for Germany Weather past 2 weeks in Würzburg, Bavaria, Germany

Now
32 °F

Clear.


Feels Like: 32 °F
Forecast: 30 / 36 °F
Wind: 1 mph from Southwest

Location: Wuerzburg

Current Time: Feb 1, 2015 at 2:33:16 AM

Latest Report: Feb 1, 2015 at 2:00 AM


Visibility: 10 mi

Pressure: 29.18 "Hg

Humidity: 96%

Dew point: 31 °F

Location of WürzburgLocation

Historic Weather in Würzburg — Graph

°F

Würzburg temperature yesterday

Maximum temperature yesterday: 36 °F (at 1:00 PM)
Minimum temperature yesterday: 30 °F (at 2:00 AM)
Average temperature yesterday: 33 °F

Past Weeks' High & Low Weather Summary

 TemperatureHumidityPressure
High40 °F (Jan 17, 1:00 AM)100% (Jan 18, 1:00 AM)30.43 "Hg (Jan 18, 1:00 AM)
Low26 °F (Jan 21, 7:00 AM)72% (Jan 19, 3:00 PM)28.73 "Hg (Jan 30, 2:00 AM)
Average34 °F92%29.86 "Hg
* Reported Jan 17 1:00 AM — Feb 1 1:00 AM, Würzburg, Weather by CustomWeather, © 2014

Note: Actual official high and low records may vary slightly from our data, if they occured in-between our weather recording intervals... More about our weather records

Advertising

Würzburg weather history for previous 24 hours

 ConditionsComfort  
Time TempWeatherWind HumidityBarometerVisibility
1:00 AM
Feb 1
33 °FOvercast.3 mph93%29.18 "Hg12 mi
12:00 AM34 °FOvercast.3 mph92%29.18 "Hg17 mi
11:00 PM
Jan 31
33 °FOvercast.5 mph97%29.15 "Hg12 mi
10:00 PM32 °FLight snow. Low clouds.5 mph100%29.15 "Hg1 mi
9:00 PM33 °FLight snow. Overcast.3 mph97%29.15 "Hg4 mi
8:00 PM34 °FLight snow. Overcast.3 mph91%29.15 "Hg8 mi
7:00 PM34 °FOvercast.3 mph90%29.12 "Hg16 mi
6:00 PM35 °FOvercast.3 mph88%29.12 "Hg14 mi
5:00 PM35 °FOvercast.5 mph86%29.09 "Hg19 mi
4:00 PM36 °FOvercast.3 mph74%29.09 "Hg25 mi
3:00 PM36 °FOvercast.6 mph75%29.09 "Hg25 mi
2:00 PM36 °FOvercast.5 mph82%29.06 "Hg19 mi
1:00 PM36 °FOvercast.6 mph81%29.06 "Hg16 mi
12:00 PM35 °FOvercast.6 mph85%29.06 "Hg15 mi
11:00 AM34 °FOvercast.6 mph88%29.06 "Hg14 mi
10:00 AM34 °FLight snow. Overcast.9 mph87%29.03 "Hg10 mi
9:00 AM32 °FSnow flurries. Overcast.7 mph90%29.03 "Hg11 mi
8:00 AM31 °FOvercast.8 mph91%29.00 "Hg6 mi
7:00 AM32 °FLight snow. Overcast.7 mph91%29.00 "Hg12 mi
6:00 AM32 °FOvercast.6 mph90%28.97 "Hg19 mi
5:00 AM31 °FOvercast.5 mph91%28.97 "Hg19 mi
4:00 AM31 °FOvercast.5 mph92%28.97 "Hg18 mi
3:00 AM31 °FOvercast.2 mph95%28.97 "Hg12 mi
2:00 AM30 °FPassing clouds.3 mph96%28.97 "Hg8 mi
Weather by CustomWeather, © 2014

See weather overviewHow to use our weather pages